Regional Weather Roundup
Issued by NWS Upton, NY

Home | Current Version | Previous Version | Text Only | Print | Product List | Glossary On
Versions: 1 2 3 4 5 6 7 8 9 10 11 12 13 14 15 16 17 18 19 20 21 22 23 24 25 26 27 28 29 30 31 32 33 34 35 36 37 38 39 40 41 42 43 44 45 46 47 48 49 50
560
ASUS41 KOKX 261709
RWROKX

REGIONAL WEATHER ROUNDUP
NATIONAL WEATHER SERVICE NEW YORK NY
100 PM EDT FRI MAY 26 2017

NOTE: "FAIR" INDICATES FEW OR NO CLOUDS BELOW 12,000 FEET WITH NO
SIGNIFICANT WEATHER AND/OR OBSTRUCTIONS TO VISIBILITY.

NYZ071-072-176-178-NJZ106-104-261800-
NEW YORK CITY METRO AREA

CITY           SKY/WX    TMP DP  RH WIND       PRES   REMARKS
Central Park   PTSUNNY   71  56  58 W12G20    29.61S
Wall St Helipt CLOUDY    71  56  58 VRB5G17   29.60R
Bronx Bot Gard   N/A     72  54  53 SW15      29.60F
LaGuardia APRT PTSUNNY   74  54  49 W18G24    29.57F
Kennedy INTL   PTSUNNY   72  58  61 W16       29.59F
Breezy Point     N/A     66 N/A N/A W10G16      N/A
Newark/Liberty PTSUNNY   74  55  51 W20       29.59R
Teterboro      PTSUNNY   75  57  53 NW12      29.57S
$$

NYZ177-179-078>081-261800-
LONG ISLAND NEW YORK

CITY           SKY/WX    TMP DP  RH WIND       PRES   REMARKS
Jones Beach      N/A     64 N/A N/A W10G16      N/A
Matinecock PT  NOT AVBL
Farmingdale    MOSUNNY   72  58  61 W9G20     29.58F
MacArthur/ISP  CLOUDY    69  58  67 W15G23    29.58S
Shirley        CLOUDY    69  59  70 W9        29.59S
Mt Sinai Harb    N/A    N/A N/A N/A W6G12       N/A
Westhampton    CLOUDY    65  55  70 W14       29.60S
East Hampton   CLOUDY    62  53  73 W6        29.59R
Montauk          N/A     59  52  77 W8        29.60S
$$

NYZ052-065-067-261800-
HUDSON VALLEY

CITY           SKY/WX    TMP DP  RH WIND       PRES   REMARKS
White Plains   PTSUNNY   70  58  65 NW10      29.58S
Larchmont Harb   N/A     70 N/A N/A W12G18      N/A
Croton O-T Hud   N/A     70 N/A N/A NW13        N/A
Newburgh       PTSUNNY   68  59  73 NW12G30   29.59S
Montgomery     CLOUDY    70  55  59 W10G21    29.58R
Poughkeepsie   CLOUDY    66  58  75 CALM      29.57R
Albany         DRIZZLE   58  54  86 E3        29.58S
$$

NJZ001-105-106-008-010-013-015-019>022-104-261800-
NEW JERSEY

CITY           SKY/WX    TMP DP  RH WIND       PRES   REMARKS
Newark/Liberty PTSUNNY   74  55  51 W20       29.59R
Teterboro      PTSUNNY   75  57  53 NW12      29.57S
Caldwell       MOSUNNY   75  54  47 NW13G22   29.60R
Somerville     CLOUDY    72  57  59 VRB7      29.60S
Linden         PTSUNNY   73  56  55 W13G23    29.60S
Perth Amboy      N/A     70 N/A N/A W20G29      N/A
Sussex         CLOUDY    69  54  58 W12G18    29.62R
Andover          N/A     70  54  56 VRB3      29.62R
Trenton        CLOUDY    73  57  57 W9G20     29.63S
Millville      PTSUNNY   74  61  63 W16G25    29.69R
Atlantic City  PTSUNNY   74  57  55 W16G25    29.66S
Wrightstown    PTSUNNY   73  56  56 W16G29    29.61F
Toms River     PTSUNNY   75  59  57 W16       29.64F
Belmar         PTSUNNY   73  57  57 W20       29.63S
$$

PAZ047>061-062-071-261800-
EASTERN PENNSYLVANIA

CITY           SKY/WX    TMP DP  RH WIND       PRES   REMARKS
Philadelphia   MOSUNNY   74  55  51 W13G25    29.66S
Allentown      CLOUDY    70  57  63 W14G21    29.65R
Scranton       CLOUDY    63  54  72 N13       29.66R
$$

CTZ002-004>006-009-010-012-RIZ004-006-007-MAZ004-011-015-261800-
SOUTHERN NEW ENGLAND
 IN CT

CITY           SKY/WX    TMP DP  RH WIND       PRES   REMARKS
Bradley INTL   CLOUDY    58  54  86 SW5       29.57R
Hartford       CLOUDY    59  54  83 VRB3      29.57S
Danbury        CLOUDY    66  58  75 W8        29.59R
Wtrbury/Oxford PTSUNNY   63  54  72 NW7       29.59S
Bridgeport     CLOUDY    67  57  70 S9        29.58S
Meriden        CLOUDY    63  55  75 W8        29.58R
New Haven      PTSUNNY   64  56  75 CALM      29.58S
Chester        CLOUDY    59  55  88 VRB6      29.58S
Groton         CLOUDY    57  53  86 SW8       29.57R
Wilimantic     CLOUDY    58  53  84 W7        29.58R

 IN RI

CITY           SKY/WX    TMP DP  RH WIND       PRES   REMARKS
Providence     LGT RAIN  55  53  93 NW9       29.56R
Block Island   PTSUNNY   58  53  84 W13       29.58S
Westerly       CLOUDY    60  53  77 SW9       29.58R
 IN MA

CITY           SKY/WX    TMP DP  RH WIND       PRES   REMARKS
Boston         CLOUDY    57  51  80 NW12      29.53R
Worcester      LGT RAIN  52  48  86 W9        29.56R
Westfield      LGT RAIN  56  55  97 CALM      29.57R FOG
Provincetown   CLOUDY    51  49  92 NW21G32   29.51R
Nantucket      CLOUDY    56  49  77 W18G29    29.52R
$$

ANZ330-335-338-340-345-350-353-355-261800-
COASTAL MARINE OBSERVATIONS


STATION/POSITION TIME  SKY/WX   TEMP    WIND        PRES    VSBY  WAVE
                                AIR SEA DIR/SP/G                  HT/PER
                 (UTC)          (F)     (DEG/KT/KT) (MB)    (MI)  (FT/S)
NY HARB ENTRANCE 1550            61 57  250/  4/  6 1002.5          5/11
20 S FIRE ISLAND 1650            58 55  220/  6/ 10 1002.3          6/ 9
GREAT SOUTH BAY  1630            62 62  250/ 12/ 16   N/A
23 SSW MONTAUK P 1550            54 54              1002.3          7/ 9
15 E BARNEGAT LI 1630               60                N/A           6/ 8
HUDSON CANYON    1550            57 54  250/ 16/ 19 1003.2          7/ 9
KINGS POINT      1642            67 58  300/  7/ 15 1001.5
EXECUTION ROCKS  1645            69                   N/A
CENTRAL LI SOUND 1615            56     240/  8/ 10   N/A           1/ 2
EASTERN LI SOUND NOT AVBL
ROBBINS REEF     1642            71     260/ 22/ 25 1002.3
$$


>>>>>>>>>>>>>>>>>>>>>>>>>>>> KEY <<<<<<<<<<<<<<<<<<<<<<<<<<<
>                                                          <
>     SKY/WX - Sky Condition/Present Weather               <
>     TMP    - Temperature in Fahrenheit                   <
>     DP     - Dew Point in Fahrenheit                     <
>     RH     - Relative Humidity in Percent                <
>     WIND   - Direction (from) and Speed in MPH           <
>     PRES   - Mean Sea Level Pressure (inches of Hg)      <
>     WCI    - Wind Chill Index                            <
>     VSB    - VISIBILITY IN MILES                         <
>     HX     - HEAT INDEX                                  <
>     TC     - TEMPERATURE IN CELSIUS                      <
>     VRB    - VARIABLE WIND DIRECTION                     <
>                                                          <
>>>>>>>>>>>>>>>>>>>>>>>>>>>> KEY <<<<<<<<<<<<<<<<<<<<<<<<<<<




USA.gov is the U.S. government's official web portal to all federal, state and local government web resources and services.